{"data":{"norad_id":65468,"epoch":"2026-05-25T01:17:02.870016Z","epoch_age_seconds":73664,"freshness":"FRESH","line1":"1 65468U 25195L   26145.05350544  .00012212  00000+0  40441-3 0  9998","line2":"2 65468  53.1594 262.8870 0001127  81.5357 278.5772 15.31717845 41691","mean_motion":15.31717845,"eccentricity":0.0001127,"inclination_deg":53.1594,"raan_deg":262.887,"arg_perigee_deg":81.5357,"mean_anomaly_deg":278.5772,"bstar":0.00040441,"rev_number":4169,"period_min":94.012092677552,"perigee_km":469.91493828333,"apogee_km":471.45866316802,"semimajor_km":6848.8238007257,"source":"CELESTRAK","updated_at":"2026-05-25T13:38:20.813967Z"}}